Stations météo

Publicité
Kasteli, Grèce (16760): Température de l'air & dewpoint: 03.08.2020 08:00:00 - 09.08.2020 08:00:00 (EEST)Kasteli, Grèce (16760): Vitesse du vent: 03.08.2020 08:00:00 - 09.08.2020 08:00:00 (EEST)Kasteli, Grèce (16760): Direction du vent: 03.08.2020 08:00:00 - 09.08.2020 08:00:00 (EEST)Kasteli, Grèce (16760): reduced air pressure: 03.08.2020 08:00:00 - 09.08.2020 08:00:00 (EEST)Kasteli, Grèce (16760): visibility: 03.08.2020 08:00:00 - 09.08.2020 08:00:00 (EEST)
Date & Time tt [°C] td [°C] ff [km/h] ff [knt] dd ppp [hPa] vv [km]
09.08.2020 08:00:00 - - - - - - -
09.08.2020 07:00:00 - - - - - - -
09.08.2020 06:00:00 21,8 17,6 0 0 N 1007,1 10
09.08.2020 05:00:00 - - - - - - -
09.08.2020 04:00:00 - - - - - - -
09.08.2020 03:00:00 21,8 17,0 5 3 ENE 1007,0 10
09.08.2020 02:00:00 - - - - - - -
09.08.2020 01:00:00 - - - - - - -
09.08.2020 00:00:00 22,6 19,6 9 5 N 1007,9 -
08.08.2020 23:00:00 - - - - - - -
08.08.2020 22:00:00 - - - - - - -
08.08.2020 21:00:00 23,6 19,2 8 4 NE 1009,1 10
08.08.2020 20:00:00 - - - - - - -
08.08.2020 19:00:00 - - - - - - -
08.08.2020 18:00:00 26,6 18,1 16 9 NNE 1010,2 10
08.08.2020 17:00:00 - - - - - - -
08.08.2020 16:00:00 - - - - - - -
08.08.2020 15:00:00 28,0 18,1 18 10 NNE 1009,0 10
08.08.2020 14:00:00 - - - - - - -
08.08.2020 13:00:00 - - - - - - -
08.08.2020 12:00:00 27,6 17,5 13 7 NE 1010,0 10
08.08.2020 11:00:00 - - - - - - -
08.08.2020 10:00:00 - - - - - - -
08.08.2020 09:00:00 25,2 16,6 5 3 NNE 1010,5 10
08.08.2020 08:00:00 - - - - - - -
08.08.2020 07:00:00 - - - - - - -
08.08.2020 06:00:00 21,0 15,3 0 0 N 1010,5 10
08.08.2020 05:00:00 - - - - - - -
08.08.2020 04:00:00 - - - - - - -
08.08.2020 03:00:00 21,8 19,0 0 0 N 1011,4 10
08.08.2020 02:00:00 - - - - - - -
08.08.2020 01:00:00 - - - - - - -
08.08.2020 00:00:00 22,6 19,9 9 5 ENE 1012,0 -
07.08.2020 23:00:00 - - - - - - -
07.08.2020 22:00:00 - - - - - - -
07.08.2020 21:00:00 24,0 18,0 9 5 NE 1012,1 10
07.08.2020 20:00:00 - - - - - - -
07.08.2020 19:00:00 - - - - - - -
07.08.2020 18:00:00 27,4 19,0 15 8 NNE 1011,4 10
07.08.2020 17:00:00 - - - - - - -
07.08.2020 16:00:00 - - - - - - -
07.08.2020 15:00:00 29,0 18,1 13 7 N 1011,4 10
07.08.2020 14:00:00 - - - - - - -
07.08.2020 13:00:00 - - - - - - -
07.08.2020 12:00:00 28,8 16,7 9 5 N 1011,1 10
07.08.2020 11:00:00 - - - - - - -
07.08.2020 10:00:00 - - - - - - -
07.08.2020 09:00:00 25,8 18,8 0 0 N 1011,2 10
07.08.2020 08:00:00 - - - - - - -
07.08.2020 07:00:00 - - - - - - -
07.08.2020 06:00:00 20,2 19,2 0 0 N 1010,9 10
07.08.2020 05:00:00 - - - - - - -
07.08.2020 04:00:00 - - - - - - -
07.08.2020 03:00:00 21,0 20,0 2 1 N 1011,1 -
07.08.2020 02:00:00 - - - - - - -
07.08.2020 01:00:00 - - - - - - -
07.08.2020 00:00:00 22,8 19,6 2 1 N 1011,6 -
06.08.2020 23:00:00 - - - - - - -
06.08.2020 22:00:00 - - - - - - -
06.08.2020 21:00:00 27,0 21,7 8 4 NE 1011,5 10
06.08.2020 20:00:00 - - - - - - -
06.08.2020 19:00:00 - - - - - - -
06.08.2020 18:00:00 31,0 19,5 11 6 NE 1010,2 10
06.08.2020 17:00:00 - - - - - - -
06.08.2020 16:00:00 - - - - - - -
06.08.2020 15:00:00 34,2 16,8 0 0 N 1010,2 10
06.08.2020 14:00:00 - - - - - - -
06.08.2020 13:00:00 - - - - - - -
06.08.2020 12:00:00 33,8 16,6 0 0 N 1008,8 10
06.08.2020 11:00:00 - - - - - - -
06.08.2020 10:00:00 - - - - - - -
06.08.2020 09:00:00 25,4 18,5 5 3 NE 1009,5 10
06.08.2020 08:00:00 - - - - - - -
06.08.2020 07:00:00 - - - - - - -
06.08.2020 06:00:00 22,6 14,4 0 0 N 1009,3 10
06.08.2020 05:00:00 - - - - - - -
06.08.2020 04:00:00 - - - - - - -
06.08.2020 03:00:00 21,2 11,6 4 2 N 1009,3 10
06.08.2020 02:00:00 - - - - - - -
06.08.2020 01:00:00 - - - - - - -
06.08.2020 00:00:00 22,3 14,7 0 0 N 1009,5 -
05.08.2020 23:00:00 - - - - - - -
05.08.2020 22:00:00 - - - - - - -
05.08.2020 21:00:00 27,0 14,1 0 0 N 1008,8 10
05.08.2020 20:00:00 - - - - - - -
05.08.2020 19:00:00 - - - - - - -
05.08.2020 18:00:00 30,2 12,6 15 8 NE 1008,3 10
05.08.2020 17:00:00 - - - - - - -
05.08.2020 16:00:00 - - - - - - -
05.08.2020 15:00:00 31,0 17,3 18 10 NNE 1008,6 10
05.08.2020 14:00:00 - - - - - - -
05.08.2020 13:00:00 - - - - - - -
05.08.2020 12:00:00 30,2 17,1 18 10 NNE 1008,2 10
05.08.2020 11:00:00 - - - - - - -
05.08.2020 10:00:00 - - - - - - -
05.08.2020 09:00:00 25,2 20,7 11 6 NNE 1008,5 10
05.08.2020 08:00:00 - - - - - - -
05.08.2020 07:00:00 - - - - - - -
05.08.2020 06:00:00 23,2 17,2 8 4 NE 1008,0 10
05.08.2020 05:00:00 - - - - - - -
05.08.2020 04:00:00 - - - - - - -
05.08.2020 03:00:00 22,6 17,7 5 3 N 1008,7 10
05.08.2020 02:00:00 - - - - - - -
05.08.2020 01:00:00 - - - - - - -
05.08.2020 00:00:00 23,3 12,4 8 4 N 1009,4 -
04.08.2020 23:00:00 - - - - - - -
04.08.2020 22:00:00 - - - - - - -
04.08.2020 21:00:00 25,6 13,0 8 4 NNE 1009,1 10
04.08.2020 20:00:00 - - - - - - -
04.08.2020 19:00:00 - - - - - - -
04.08.2020 18:00:00 28,6 10,9 18 10 NE 1008,6 10
04.08.2020 17:00:00 - - - - - - -
04.08.2020 16:00:00 - - - - - - -
04.08.2020 15:00:00 29,6 11,9 22 12 NNE 1009,8 10
04.08.2020 14:00:00 - - - - - - -
04.08.2020 13:00:00 - - - - - - -
04.08.2020 12:00:00 28,6 12,0 18 10 NNE 1010,2 10
04.08.2020 11:00:00 - - - - - - -
04.08.2020 10:00:00 - - - - - - -
04.08.2020 09:00:00 25,4 15,6 13 7 ENE 1010,6 10
04.08.2020 08:00:00 - - - - - - -
04.08.2020 07:00:00 - - - - - - -
04.08.2020 06:00:00 22,8 14,1 13 7 NE 1010,0 -
04.08.2020 05:00:00 - - - - - - -
04.08.2020 04:00:00 - - - - - - -
04.08.2020 03:00:00 22,2 14,9 0 0 N 1010,3 10
04.08.2020 02:00:00 - - - - - - -
04.08.2020 01:00:00 - - - - - - -
04.08.2020 00:00:00 22,4 15,1 5 3 N 1010,8 -
03.08.2020 23:00:00 - - - - - - -
03.08.2020 22:00:00 - - - - - - -
03.08.2020 21:00:00 23,8 17,7 15 8 NNE 1010,4 10
03.08.2020 20:00:00 - - - - - - -
03.08.2020 19:00:00 - - - - - - -
03.08.2020 18:00:00 27,6 15,0 18 10 NNE 1009,3 10
03.08.2020 17:00:00 - - - - - - -
03.08.2020 16:00:00 - - - - - - -
03.08.2020 15:00:00 28,2 16,8 18 10 NNE 1009,8 10
03.08.2020 14:00:00 - - - - - - -
03.08.2020 13:00:00 - - - - - - -
03.08.2020 12:00:00 28,0 16,9 18 10 NNE 1010,3 10
03.08.2020 11:00:00 - - - - - - -
03.08.2020 10:00:00 - - - - - - -
03.08.2020 09:00:00 25,6 18,4 13 7 NE 1010,2 10
03.08.2020 08:00:00 - - - - - - -

tt = Température de l'air
td = dewpoint
ff = Vitesse du vent
dd = Direction du vent
ppp = reduced air pressure
vv = visibility

stations d'obs. à proximité